This demonstration page uses our WeatherBlox Daily Observations layout. Learn more.

Left ArrowRight Arrow

Hourly Observations for May 29, 2015

Temp ( °F °C ) Dew Point ( °F °C ) Humidity (%) Winds ( mph kmh ) Pressure ( in mb ) Visibility ( mi km ) Precip ( " mm )
12:53 am 00:53 Clear 69 20.6 54 12.2 59 59 NW 3 6 29.90 1013 10 16 0.00 0.00
1:53 am 01:53 Clear 68 20 54 12.2 61 61 Calm 29.90 1012 10 16 0.00 0.00
2:53 am 02:53 Clear 67 19.4 54 12.2 63 63 NNW 5 7 29.90 1012 10 16 0.00 0.00
3:53 am 03:53 Clear 65 18.3 54 12.2 68 68 Calm 29.89 1012 10 16 0.00 0.00
4:53 am 04:53 Clear 65 18.3 54 12.2 68 68 NNW 3 6 29.89 1012 10 16 0.00 0.00
5:53 am 05:53 Sunny 66 18.9 54 12.2 65 65 N 3 6 29.89 1012 10 16 0.00 0.00
6:53 am 06:53 Sunny 69 20.6 55 12.8 61 61 NNW 3 6 29.91 1013 10 16 0.00 0.00
7:53 am 07:53 Sunny 73 22.8 54 12.2 51 51 Calm 29.91 1013 10 16 0.00 0.00
8:53 am 08:53 Sunny 77 25 53 11.7 43 43 Calm 29.91 1013 10 16 0.00 0.00
9:53 am 09:53 Sunny 80 26.7 53 11.7 39 39 Calm 29.89 1012 10 16 0.00 0.00
10:53 am 10:53 Sunny 84 28.9 54 12.2 36 36 VRB 5 7 29.88 1012 10 16 0.00 0.00
11:53 am 11:53 Sunny 86 30 53 11.7 32 32 S 6 9 29.87 1012 10 16 0.00 0.00
12:53 pm 12:53 Sunny 90 32.2 52 11.1 27 27 VRB 6 9 29.85 1011 10 16 0.00 0.00
1:53 pm 13:53 Sunny 90 32.2 50 10 25 25 SSE 5 7 29.84 1011 10 16 0.00 0.00
2:53 pm 14:53 Sunny 91 32.8 50 10 25 25 S 10 17 29.83 1010 10 16 0.00 0.00
3:53 pm 15:53 Sunny 95 35 47 8.3 19 19 S 12 19 29.82 1010 10 16 0.00 0.00
4:53 pm 16:53 Sunny 93 33.9 44 6.7 18 18 S 9 15 29.80 1009 10 16 0.00 0.00
5:53 pm 17:53 Sunny 93 33.9 45 7.2 19 19 SSE 10 17 29.79 1009 10 16 0.00 0.00
6:53 pm 18:53 Sunny 91 32.8 41 5 17 17 SSE 10 17 29.78 1009 10 16 0.00 0.00
7:53 pm 19:53 Sunny 87 30.6 48 8.9 26 26 S 8 13 29.79 1009 10 16 0.00 0.00
8:53 pm 20:53 Clear 83 28.3 48 8.9 30 30 SE 7 11 29.80 1009 10 16 0.00 0.00
9:53 pm 21:53 Clear 81 27.2 49 9.4 33 33 SSE 3 6 29.82 1010 10 16 0.00 0.00
10:53 pm 22:53 Clear 77 25 51 10.6 40 40 Calm 29.83 1010 10 16 0.00 0.00
11:53 pm 23:53 Clear 74 23.3 51 10.6 45 45 NNE 3 6 29.83 1010 10 16 0.00 0.00

Powered by AerisWeather